Wind_Speed
4 4 5 5 6 6 7 9 8 13 16 21 15 14 11 11 9 12 13 16 19 19 21 21 21 21 25 25 22 19 17 17 16 16 14 15 13 12 14 18 18 16 21 31
5 5 4 4 7 8 10 10 8 9 16 21 17 21 13 9 13 10 10 14 16 19 22 22 22 25 27 25 24 21 19 17 18 16 15 14 14 12 11 18 19 18 23 29
5 6 6 5 7 10 12 11 12 15 14 18 18 12 7 11 13 12 9 11 14 16 19 22 23 26 27 26 25 23 20 18 13 13 14 11 12 13 12 16 19 17 26 30
4 2 3 7 8 11 12 11 14 18 15 6 14 7 7 12 14 15 10 11 15 19 20 22 24 26 28 27 25 22 19 18 11 3 9 7 8 10 8 7 23 22 12 40
6 6 6 7 8 9 9 12 15 17 12 6 5 5 6 13 15 21 15 12 14 17 21 24 24 26 27 27 23 21 19 17 12 3 7 9 9 11 6 9 15 22 18 28
6 6 6 5 9 9 9 11 16 10 6 1 1 4 7 8 16 20 12 10 12 17 21 25 24 26 26 24 23 20 19 19 11 4 4 7 10 9 9 11 10 16 8 31
5 7 8 8 6 6 6 11 5 4 3 3 3 8 4 11 14 17 12 10 12 17 22 25 27 27 27 25 23 20 18 19 11 5 5 5 9 7 9 10 16 16 15 18
5 4 2 3 3 5 8 3 0 4 2 5 11 6 4 12 15 16 12 10 11 14 19 23 26 27 26 24 21 19 18 18 12 6 7 5 11 13 8 11 12 16 18 17
3 4 2 5 7 5 2 2 2 3 4 4 4 5 8 5 13 13 11 9 11 13 18 21 24 26 26 23 21 18 17 17 12 15 7 3 4 9 9 8 10 6 11 18
4 5 6 6 6 7 7 4 2 2 1 4 6 8 4 6 13 14 13 11 11 14 16 19 21 23 25 24 20 17 16 16 15 7 15 13 7 4 7 6 7 5 8 12
7 7 7 7 5 6 6 6 5 3 3 4 1 5 5 10 12 22 23 17 13 14 15 17 19 21 23 23 21 18 16 15 14 11 5 3 3 8 8 8 8 6 7 9
7 6 7 9 11 13 13 10 10 5 4 5 3 11 3 4 13 28 24 21 16 14 14 15 17 18 20 22 22 21 20 19 16 14 12 7 2 2 7 9 11 12 11 11
5 5 4 5 8 11 12 9 11 13 9 11 3 8 11 19 26 21 20 25 22 18 16 12 13 16 15 19 22 23 24 23 21 17 16 13 10 5 4 7 10 12 13 13
6 14 17 11 5 6 11 14 12 14 10 14 25 35 27 27 21 24 29 28 23 20 14 7 8 12 14 18 21 23 24 26 24 22 21 17 15 12 8 7 9 12 14 15
11 16 18 19 22 24 24 22 21 25 26 25 33 37 25 25 23 17 18 20 17 14 9 2 3 8 12 14 17 20 22 26 27 27 25 21 20 19 14 11 11 12 13 15
16 15 15 20 19 23 29 30 31 32 34 35 35 35 21 15 12 9 10 11 11 9 8 3 1 4 8 11 14 15 17 20 23 25 28 26 22 21 20 16 12 11 12 12
20 18 14 10 11 14 20 25 24 25 29 28 29 19 13 7 12 11 9 10 8 7 8 6 4 1 4 6 9 12 14 17 19 22 24 27 25 23 21 20 17 14 10 9
26 19 16 10 10 4 15 19 17 18 18 18 20 19 12 10 12 13 11 10 9 8 7 7 7 4 2 3 5 8 10 12 15 17 19 21 23 25 22 20 19 16 14 12
27 23 17 8 12 17 23 22 19 20 29 20 18 13 13 15 15 12 15 11 11 9 8 7 7 7 5 3 1 3 5 8 10 12 14 17 19 20 21 20 19 16 13 12
31 28 25 16 6 5 8 11 10 11 18 10 7 6 8 10 14 11 13 14 12 10 9 8 7 7 8 6 5 2 1 3 5 7 9 11 14 15 17 19 18 17 16 14
32 32 32 32 16 16 24 25 20 15 18 15 16 19 21 21 15 12 12 13 12 11 10 9 7 7 7 9 7 6 4 2 0 2 4 6 7 9 11 12 14 14 15 14
31 23 25 27 15 15 20 25 28 25 24 24 24 20 19 18 18 13 13 12 11 11 11 10 8 7 7 7 8 8 7 6 5 4 3 2 3 3 4 5 6 7 9 9
34 38 27 28 21 11 5 10 9 9 8 13 17 16 14 11 10 10 10 11 11 11 11 11 10 9 9 8 8 8 7 6 6 6 7 7 7 5 3 2 1 0 2 2
38 38 37 36 37 35 34 31 27 17 13 7 9 9 9 7 6 8 9 11 12 11 12 11 11 11 11 12 12 11 10 9 9 9 8 8 9 10 10 9 8 7 6 5
34 31 38 43 39 35 34 30 23 30 24 13 14 17 17 16 15 11 11 14 14 14 14 13 13 14 15 14 15 15 13 12 12 11 11 12 13 13 13 14 14 15 14 13
36 36 35 35 21 22 18 20 28 24 29 33 32 29 28 26 25 22 18 18 19 19 19 18 17 14 18 18 18 18 16 15 14 14 14 15 14 15 16 16 16 17 18 18
Wind_Direction
294 313 314 315 319 319 310 310 331 337 339 325 309 311 297 329 343 335 335 349 352 348 352 353 353 347 341 341 336 327 316 294 272 261 247 247 250 246 231 237 229 235 210 194
297 304 308 301 304 304 298 310 319 328 344 328 311 315 276 328 4 330 338 353 352 350 348 350 352 351 346 343 340 338 333 319 285 259 253 241 247 249 243 213 219 222 191 194
290 294 297 293 299 301 306 312 320 319 334 327 321 320 307 311 327 354 348 352 349 349 350 348 352 349 345 346 345 343 341 339 309 270 260 257 241 250 239 221 213 205 205 191
285 325 296 299 302 304 310 316 317 317 319 326 321 293 317 331 330 345 357 358 353 351 350 355 351 348 345 350 349 345 349 344 328 267 260 242 247 249 234 228 204 183 153 195
270 287 294 292 297 302 303 315 317 314 308 328 329 306 301 326 331 340 347 359 351 349 356 359 354 349 350 353 351 351 357 353 341 224 218 227 241 223 253 240 246 232 180 165
276 279 279 274 291 293 302 316 311 303 306 331 71 349 298 323 326 335 339 347 352 353 358 1 359 356 357 357 356 1 4 5 3 5 194 209 200 194 247 182 209 225 195 175
300 284 279 281 278 288 314 323 309 340 360 204 275 304 279 326 333 331 328 345 358 355 358 359 2 1 3 6 357 7 11 22 46 354 133 150 182 198 168 168 187 210 204 214
281 290 277 262 253 289 309 321 34 228 302 278 280 241 317 328 333 331 330 338 352 355 356 3 3 4 7 11 5 12 15 38 57 64 114 123 162 140 128 179 191 204 204 212
236 255 231 268 278 291 280 289 282 266 294 316 279 286 318 358 348 336 334 339 348 352 360 3 8 7 9 15 16 20 21 34 63 73 68 146 161 153 190 163 189 180 193 199
247 269 263 268 275 270 243 252 274 252 47 303 284 281 262 325 345 344 342 347 352 353 357 1 12 11 16 19 22 26 31 34 39 87 64 39 59 141 171 170 169 187 171 183
257 259 265 270 257 254 244 247 236 233 235 168 288 284 304 322 344 351 344 341 348 350 350 357 9 17 23 26 31 33 34 39 49 53 86 162 345 107 120 165 167 139 153 186
249 266 264 263 273 263 259 249 234 223 215 219 241 281 331 330 322 335 334 332 338 344 344 352 8 17 30 36 39 41 43 44 47 56 68 65 33 185 187 203 211 215 197 168
275 251 283 283 271 261 255 257 245 241 242 235 187 262 296 308 314 318 322 320 317 327 328 339 8 20 37 47 54 50 53 52 51 57 61 64 72 85 149 171 189 189 186 154
293 269 247 251 260 283 281 284 272 239 236 256 255 287 296 298 304 305 300 300 308 311 294 319 8 33 52 55 55 55 56 58 58 54 53 60 67 77 90 127 157 169 172 166
301 276 262 266 262 268 274 273 274 267 273 262 287 286 308 315 300 279 283 296 300 291 273 293 14 48 63 59 54 56 62 63 61 60 62 63 62 65 76 100 129 150 161 170
282 264 272 284 280 268 272 270 270 269 268 268 277 291 330 311 267 260 287 289 294 282 272 261 265 63 64 62 62 57 60 61 61 61 62 65 69 68 67 72 91 118 143 161
273 260 265 281 286 280 279 274 266 271 274 275 273 310 320 310 261 262 263 275 283 281 278 268 255 173 61 60 65 68 61 63 61 60 63 67 68 71 74 75 78 88 106 129
271 242 255 262 274 217 263 268 263 271 276 278 291 309 265 285 277 264 256 257 265 270 270 275 262 237 174 79 66 67 65 65 68 65 60 64 69 71 72 78 81 83 89 98
251 240 239 237 230 277 271 265 263 271 286 283 284 299 262 271 285 277 260 255 253 260 261 258 260 251 229 204 135 67 54 51 56 61 64 62 62 67 72 77 81 79 80 85
237 237 236 221 230 232 261 272 260 261 280 270 259 285 305 303 275 271 245 240 247 250 250 252 250 250 251 235 218 202 90 54 56 63 61 66 67 64 69 70 73 84 87 86
214 222 224 233 238 257 255 264 259 253 261 264 270 282 280 296 293 257 234 230 230 233 232 239 241 249 250 252 245 237 231 233 47 48 53 62 67 70 66 70 73 75 82 88
224 212 218 227 229 264 277 261 251 278 270 261 273 278 281 281 269 265 243 225 221 219 224 232 240 241 246 248 253 251 247 249 261 277 309 358 36 62 74 75 82 79 84 93
225 231 231 232 249 239 281 301 294 304 282 264 253 262 264 264 257 242 234 224 217 217 224 237 244 241 239 239 241 249 249 253 260 269 277 282 287 292 302 310 335 106 125 124
237 239 243 243 247 261 268 261 260 268 253 275 218 222 229 244 248 240 227 221 219 221 228 240 245 251 249 245 240 240 249 262 274 279 281 281 280 278 275 273 273 269 260 247
245 242 243 250 258 265 263 264 262 252 250 234 237 251 262 256 267 266 255 239 232 231 236 242 249 253 256 255 252 247 243 248 254 259 269 277 282 284 281 278 274 271 269 266
242 243 240 253 278 276 273 263 247 251 248 249 250 259 262 265 267 269 264 257 248 241 241 243 249 257 254 255 256 256 253 248 253 258 260 260 267 274 279 278 276 275 273 270
Height
3141 3142 3141 3139 3138 3138 3137 3135 3133 3132 3131 3129 3126 3124 3122 3117 3113 3112 3111 3108 3103 3100 3097 3092 3088 3084 3077 3071 3064 3060 3057 3056 3055 3055 3054 3055 3055 3057 3059 3060 3062 3066 3067 3074
3140 3139 3139 3137 3137 3137 3135 3133 3132 3129 3128 3126 3124 3121 3118 3116 3113 3111 3109 3106 3104 3099 3093 3090 3086 3081 3074 3067 3061 3056 3053 3050 3049 3049 3050 3050 3051 3053 3055 3057 3059 3063 3066 3070
3138 3139 3137 3136 3136 3135 3133 3132 3130 3128 3124 3123 3120 3117 3116 3115 3112 3109 3108 3106 3103 3099 3093 3088 3084 3078 3071 3064 3058 3053 3049 3045 3043 3044 3046 3048 3048 3049 3051 3054 3058 3061 3062 3066
3136 3136 3136 3135 3134 3133 3131 3130 3128 3126 3123 3122 3121 3119 3114 3113 3110 3109 3107 3104 3101 3097 3092 3087 3083 3076 3069 3063 3056 3050 3046 3042 3038 3038 3042 3045 3046 3048 3049 3051 3056 3058 3057 3064
3135 3134 3133 3133 3133 3132 3131 3128 3125 3123 3121 3120 3119 3120 3111 3110 3107 3106 3104 3102 3100 3097 3091 3087 3081 3075 3068 3062 3055 3049 3045 3040 3036 3035 3037 3040 3042 3045 3047 3049 3052 3055 3060 3063
3132 3132 3132 3131 3131 3129 3128 3126 3123 3120 3119 3119 3118 3120 3110 3109 3108 3105 3103 3102 3099 3095 3090 3086 3081 3074 3068 3062 3054 3049 3044 3040 3037 3035 3036 3037 3041 3043 3044 3047 3049 3055 3057 3061
3131 3130 3129 3129 3129 3128 3127 3126 3123 3123 3121 3121 3117 3117 3110 3109 3108 3107 3104 3100 3098 3094 3089 3085 3078 3073 3067 3060 3054 3049 3045 3041 3039 3037 3036 3038 3040 3044 3043 3047 3050 3054 3056 3061
3130 3128 3127 3128 3128 3127 3125 3126 3125 3132 3128 3119 3115 3111 3110 3109 3108 3105 3103 3100 3097 3093 3090 3085 3079 3073 3067 3061 3055 3049 3044 3044 3043 3040 3040 3039 3039 3041 3043 3045 3050 3054 3056 3059
3128 3127 3126 3126 3126 3127 3124 3125 3126 3124 3122 3121 3112 3109 3108 3107 3107 3105 3103 3099 3096 3093 3088 3084 3079 3074 3068 3063 3057 3051 3046 3044 3043 3044 3042 3042 3043 3042 3044 3046 3048 3050 3052 3055
3125 3126 3125 3124 3124 3124 3124 3125 3124 3123 3126 3125 3111 3107 3105 3106 3105 3103 3101 3099 3096 3092 3089 3084 3080 3074 3068 3063 3058 3054 3050 3046 3043 3043 3044 3040 3042 3043 3044 3045 3047 3048 3051 3054
3123 3124 3125 3123 3122 3121 3122 3121 3122 3122 3122 3122 3124 3106 3104 3104 3104 3102 3100 3098 3095 3092 3089 3084 3080 3076 3070 3066 3061 3056 3052 3049 3046 3044 3044 3043 3043 3046 3045 3046 3048 3051 3053 3054
3120 3121 3121 3121 3120 3119 3118 3118 3119 3120 3120 3118 3117 3106 3102 3102 3101 3099 3097 3097 3095 3092 3089 3085 3081 3077 3073 3068 3064 3060 3055 3052 3049 3047 3045 3044 3045 3045 3047 3048 3049 3052 3054 3055
3117 3118 3119 3117 3118 3115 3114 3114 3115 3116 3116 3113 3115 3104 3101 3101 3100 3098 3096 3095 3094 3093 3090 3087 3083 3078 3074 3071 3066 3062 3059 3055 3053 3050 3048 3046 3046 3047 3047 3048 3050 3053 3055 3056
3112 3114 3115 3115 3114 3115 3114 3113 3113 3113 3112 3107 3101 3096 3097 3098 3097 3096 3093 3091 3091 3090 3089 3086 3083 3080 3076 3072 3069 3067 3062 3058 3055 3053 3051 3049 3049 3048 3048 3050 3051 3054 3056 3059
3108 3109 3109 3110 3110 3109 3108 3108 3108 3105 3105 3102 3095 3091 3089 3091 3089 3089 3088 3088 3087 3086 3086 3085 3083 3080 3078 3074 3072 3069 3065 3061 3058 3056 3054 3053 3052 3051 3051 3052 3053 3055 3056 3059
3102 3103 3104 3103 3104 3104 3101 3101 3100 3098 3095 3092 3090 3084 3088 3086 3084 3084 3084 3085 3085 3085 3084 3084 3082 3081 3078 3077 3074 3072 3069 3066 3063 3059 3056 3054 3054 3053 3053 3053 3054 3056 3059 3061
3097 3099 3100 3099 3098 3098 3096 3089 3090 3088 3086 3087 3085 3083 3082 3081 3080 3080 3081 3082 3082 3083 3083 3082 3082 3081 3079 3077 3076 3074 3073 3069 3067 3064 3061 3057 3056 3056 3056 3056 3058 3059 3061 3063
3090 3094 3096 3095 3095 3094 3085 3083 3083 3083 3081 3081 3079 3079 3077 3077 3077 3077 3078 3079 3079 3080 3081 3081 3081 3080 3079 3078 3077 3075 3074 3073 3071 3068 3067 3063 3061 3059 3058 3059 3060 3061 3062 3064
3084 3087 3089 3089 3088 3084 3081 3079 3079 3077 3073 3076 3075 3074 3073 3073 3072 3075 3075 3076 3077 3078 3079 3079 3079 3079 3079 3078 3077 3076 3075 3074 3072 3071 3070 3068 3066 3064 3063 3061 3060 3062 3064 3065
3075 3079 3083 3083 3083 3080 3077 3073 3073 3073 3071 3071 3072 3071 3070 3069 3068 3069 3069 3071 3074 3075 3076 3077 3077 3076 3078 3077 3077 3076 3076 3076 3075 3073 3072 3071 3070 3069 3067 3066 3065 3064 3065 3066
3065 3068 3072 3074 3074 3070 3072 3070 3071 3073 3071 3067 3068 3067 3066 3066 3066 3065 3065 3067 3069 3071 3073 3075 3075 3074 3075 3076 3076 3076 3076 3076 3076 3076 3075 3074 3073 3072 3071 3070 3069 3068 3067 3067
3053 3058 3060 3067 3069 3064 3061 3062 3063 3063 3060 3061 3061 3062 3061 3061 3062 3062 3063 3064 3066 3068 3069 3071 3072 3073 3073 3073 3074 3074 3074 3074 3075 3075 3075 3075 3075 3074 3073 3072 3072 3071 3070 3070
3042 3044 3047 3050 3049 3055 3055 3057 3058 3057 3056 3056 3056 3058 3058 3057 3058 3058 3060 3061 3063 3065 3067 3068 3069 3070 3071 3071 3071 3071 3072 3072 3072 3073 3073 3074 3074 3073 3073 3072 3072 3072 3071 3070
3030 3035 3038 3041 3040 3047 3050 3053 3054 3055 3053 3052 3052 3054 3054 3055 3055 3056 3057 3058 3060 3061 3063 3064 3066 3067 3068 3068 3069 3069 3070 3071 3071 3071 3071 3071 3071 3071 3071 3071 3071 3071 3070 3070
3022 3027 3027 3028 3033 3037 3038 3043 3046 3047 3049 3049 3048 3049 3049 3051 3052 3053 3054 3055 3057 3058 3060 3061 3062 3062 3063 3064 3065 3066 3067 3067 3068 3068 3068 3068 3068 3068 3068 3068 3068 3068 3068 3068
3008 3013 3017 3018 3028 3029 3032 3034 3037 3038 3039 3040 3041 3043 3044 3046 3047 3048 3049 3050 3052 3054 3055 3057 3058 3058 3058 3059 3060 3060 3061 3063 3063 3064 3064 3064 3064 3064 3064 3064 3063 3063 3063 3064